Albany, NY

9:47 PM EDT on October 17, 2019 (GMT -0400)
Albany International

Weather History for KALB - July, 2019

Change the Weather History Date:

Sunday, July 21, 2019

  Actual Average Record
Temperature  
Mean Temperature 81 °F 72 °F  
Max Temperature 91 °F 83 °F 101 °F (1930)
Min Temperature 71 °F 62 °F 45 °F (1974)
Degree Days  
Heating Degree Days 0 0  
Month to date heating degree days 0 0  
Since 1 June heating degree days 27 52  
Since 1 July heating degree days 0 0  
Cooling Degree Days 16 7  
Month to date cooling degree days 255 144  
Year to date cooling degree days 405 292  
Since 1 June cooling degree days 383 262  
Growing Degree Days 31 (Base 50)    
Moisture  
Dew Point 65 °F    
Average Humidity 68    
Maximum Humidity 93    
Minimum Humidity 42    
Precipitation  
Precipitation 0.00 in 0.13 in 1.27 in (1931)
Month to date precipitation 1.49 2.79  
Year to date precipitation 22.36 21.36  
Sea Level Pressure  
Sea Level Pressure 29.79 in    
Wind  
Wind Speed 9 mph (West)    
Max Wind Speed 25 mph    
Max Gust Speed 30 mph    
Visibility 10 miles    
Events      
T = Trace of Precipitation, MM = Missing Value Source: NWS Daily Summary

Daily Weather History Graph

Daily Weather History Graph

Search for Another Location

Airport or City:

Astronomy

Jul. 21, 2019 Rise Set
Actual Time 5:35 AM EDT 8:27 PM EDT
Civil Twilight 5:02 AM EDT 9:00 PM EDT
Nautical Twilight 4:20 AM EDT 9:42 PM EDT
Astronomical Twilight 3:31 AM EDT 10:31 PM EDT
Moon 11:14 PM EDT (7/21) 9:58 AM EDT (7/21)
Length of Visible Light 15h 58m
Length of Day
14h 51m
Waning Gibbous, 80% of the Moon is Illuminated
Jul 21
Waning Gibbous
Jul 24
Last Quarter
Jul 31
New
Aug 7
First Quarter
Aug 15
Full

Hourly Weather History & Observations

Time (EDT) Temp. Heat Index Dew Point Humidity Pressure Visibility Wind Dir Wind Speed Gust Speed Precip Events Conditions
12:51 AM 72.0 °F - 69.1 °F 91% 29.78 in 10.0 mi WSW 3.5 mph - N/A   Partly Cloudy
1:51 AM 72.0 °F - 69.1 °F 91% 29.78 in 10.0 mi SSW 3.5 mph - N/A   Partly Cloudy
2:51 AM 73.0 °F - 69.1 °F 87% 29.76 in 10.0 mi Calm Calm - N/A   Partly Cloudy
3:51 AM 73.0 °F - 68.0 °F 84% 29.73 in 10.0 mi Calm Calm - N/A   Clear
4:51 AM 71.1 °F - 68.0 °F 90% 29.74 in 10.0 mi SSW 5.8 mph - N/A   Partly Cloudy
5:51 AM 71.1 °F - 66.9 °F 87% 29.77 in 10.0 mi Calm Calm - N/A   Scattered Clouds
7:51 AM 75.0 °F - 69.1 °F 82% 29.79 in 10.0 mi South 6.9 mph - N/A   Mostly Cloudy
8:51 AM 79.0 °F - 71.1 °F 77% 29.79 in 10.0 mi South 6.9 mph - N/A   Scattered Clouds
9:51 AM 84.9 °F 90.1 °F 71.1 °F 63% 29.78 in 10.0 mi WNW 4.6 mph - N/A   Scattered Clouds
10:51 AM 87.1 °F 91.3 °F 69.1 °F 55% 29.77 in 10.0 mi West 15.0 mph 20.7 mph N/A   Scattered Clouds
11:51 AM 88.0 °F 92.9 °F 70.0 °F 55% 29.77 in 10.0 mi NNW 11.5 mph - N/A   Mostly Cloudy
12:51 PM 87.1 °F 90.6 °F 68.0 °F 53% 29.78 in 10.0 mi NW 17.3 mph - N/A   Mostly Cloudy
1:51 PM 90.0 °F 93.6 °F 68.0 °F 48% 29.77 in 10.0 mi WNW 9.2 mph 23.0 mph N/A   Scattered Clouds
2:51 PM 90.0 °F 92.4 °F 66.0 °F 45% 29.78 in 10.0 mi WNW 17.3 mph 28.8 mph N/A   Scattered Clouds
3:51 PM 90.0 °F 91.7 °F 64.9 °F 43% 29.78 in 10.0 mi West 16.1 mph 24.2 mph N/A   Partly Cloudy
4:51 PM 89.1 °F 90.3 °F 64.0 °F 43% 29.78 in 10.0 mi WNW 17.3 mph 24.2 mph N/A   Scattered Clouds
5:51 PM 87.1 °F 87.8 °F 63.0 °F 44% 29.79 in 10.0 mi WNW 13.8 mph - N/A   Mostly Cloudy
6:51 PM 84.9 °F 85.0 °F 61.0 °F 44% 29.81 in 10.0 mi WNW 17.3 mph 25.3 mph N/A   Mostly Cloudy
7:51 PM 82.9 °F 83.3 °F 61.0 °F 47% 29.81 in 10.0 mi West 12.7 mph - N/A   Mostly Cloudy
8:51 PM 82.0 °F 82.1 °F 59.0 °F 45% 29.84 in 10.0 mi NW 6.9 mph - N/A   Mostly Cloudy
9:51 PM 80.1 °F 80.2 °F 55.9 °F 43% 29.86 in 10.0 mi WNW 11.5 mph - N/A   Scattered Clouds
10:51 PM 77.0 °F - 55.0 °F 47% 29.86 in 10.0 mi West 5.8 mph - N/A   Mostly Cloudy
11:51 PM 75.9 °F - 57.0 °F 52% 29.84 in 10.0 mi WNW 18.4 mph - N/A   Mostly Cloudy